User: anonymous   Login
Location: Stoke Bliss
(52.2667°N, 2.5167°W)
Time: 14:23:52
(UTC+00:00)
Language:

Cosmos 1689 Rocket - Orbit

View from above orbital plane
View from above orbital plane
View from above satellite
View from above satellite

Ground track
Ground track

The orbit data is extracted from the following two-line orbital elements,

1 16111U 85090B   21127.10639772  .00013208  00000-0  10214-3 0  9995
2 16111  97.4802 327.2127 0010327 135.5915 224.6178 15.71964866965720
Epoch (UTC): 07 May 2021 02:33:12
Eccentricity: 0.0010327
inclination: 97.4802°
perigee height: 346 km
apogee height: 360 km
right ascension of ascending node: 327.2127°
argument of perigee: 135.5915°
revolutions per day: 15.71964866
mean anomaly at epoch: 224.6178°
orbit number at epoch: 96572

The dashed part of the orbit path shows where the satellite is in the earth's shadow,  

DLR